Date Time,Air Temp,Sky Temp,Clarity,Light Level,Rain Sensor,Readings
2019-05-26 00:00:03,24.6,-4.8,29.4,0.0,2.3,111
2019-05-26 00:05:07,24.5,-5.1,29.6,0.0,2.3,111
2019-05-26 00:10:07,24.3,-5.1,29.4,0.0,2.3,111
2019-05-26 00:15:07,24.3,-5.1,29.4,0.0,2.3,112
2019-05-26 00:20:07,24.2,-5.2,29.4,0.0,2.3,111
2019-05-26 00:25:07,24.1,-5.4,29.5,0.0,2.3,112
2019-05-26 00:30:07,24.1,-5.4,29.5,0.0,2.3,111
2019-05-26 00:35:07,24.1,-5.4,29.4,0.0,2.3,112
2019-05-26 00:40:07,24.1,-5.3,29.4,0.0,2.3,111
2019-05-26 00:45:07,24.1,-5.2,29.3,0.0,2.3,111
2019-05-26 00:50:07,24.0,-5.2,29.2,0.0,2.3,112
2019-05-26 00:55:07,23.8,-5.2,29.0,0.0,2.3,111
2019-05-26 01:00:07,23.8,-5.4,29.2,0.0,2.3,112
2019-05-26 01:05:07,23.8,-5.4,29.2,0.0,2.3,111
2019-05-26 01:10:07,23.8,-5.4,29.2,0.0,2.4,112
2019-05-26 01:15:07,23.8,-5.4,29.2,0.0,2.4,111
2019-05-26 01:20:07,23.8,-5.4,29.1,0.0,2.4,111
2019-05-26 01:25:07,23.7,-5.3,29.1,0.0,2.4,112
2019-05-26 01:30:07,23.7,-5.4,29.1,0.0,2.4,111
2019-05-26 01:35:07,23.7,-5.3,29.0,0.0,2.4,112
2019-05-26 01:40:07,23.7,-5.3,29.0,0.0,2.4,111
2019-05-26 01:45:07,23.7,-5.2,28.9,0.0,2.4,111
2019-05-26 01:50:07,23.7,-5.2,28.9,0.0,2.4,112
2019-05-26 01:55:07,23.7,-5.0,28.6,0.0,2.4,111
2019-05-26 02:00:07,23.6,-4.9,28.4,0.0,2.4,111
2019-05-26 02:05:07,23.6,-5.0,28.6,0.0,2.4,112
2019-05-26 02:10:07,23.5,-5.1,28.6,0.0,2.3,111
2019-05-26 02:15:07,23.5,-5.1,28.6,0.0,2.3,111
2019-05-26 02:20:07,23.5,-5.2,28.7,0.0,2.3,111
2019-05-26 02:25:07,23.4,-5.0,28.5,0.0,2.3,112
2019-05-26 02:30:07,23.4,-5.3,28.7,0.0,2.3,111
2019-05-26 02:35:07,23.2,-5.3,28.6,0.0,2.3,111
2019-05-26 02:40:07,23.2,-5.3,28.5,0.0,2.3,112
2019-05-26 02:45:07,23.2,-5.2,28.4,0.0,2.3,111
2019-05-26 02:50:07,23.2,-5.3,28.5,0.0,2.3,111
2019-05-26 02:55:07,23.3,-5.2,28.5,0.0,2.3,112
2019-05-26 03:00:07,23.2,-5.4,28.7,0.0,2.3,111
2019-05-26 03:05:07,23.2,-5.4,28.6,0.0,2.3,111
2019-05-26 03:10:07,23.2,-5.5,28.6,0.0,2.3,112
2019-05-26 03:15:07,23.2,-5.3,28.5,0.0,2.3,111
2019-05-26 03:20:07,23.2,-5.3,28.4,0.0,2.3,112
2019-05-26 03:25:07,23.1,-5.2,28.3,0.0,2.3,111
2019-05-26 03:30:07,23.1,-5.0,28.1,0.0,2.3,112
2019-05-26 03:35:07,23.1,-5.3,28.4,0.0,2.3,111
2019-05-26 03:40:07,23.0,-5.4,28.4,0.0,2.3,111
2019-05-26 03:45:07,22.9,-5.4,28.3,0.1,2.3,112
2019-05-26 03:50:07,22.9,-5.4,28.3,0.1,2.3,111
2019-05-26 03:55:07,22.9,-5.8,28.6,0.2,2.3,111
2019-05-26 04:00:07,22.8,-5.7,28.5,0.4,2.3,111
2019-05-26 04:05:07,22.7,-4.8,27.5,0.7,2.3,112
2019-05-26 04:10:07,22.7,-2.5,25.2,1.1,2.3,111
2019-05-26 04:15:07,22.8,-0.0,22.8,2.0,2.3,112
2019-05-26 04:20:07,20.7,5.3,15.5,3.3,2.5,112
2019-05-26 04:25:07,19.2,7.1,12.1,5.0,2.3,111
2019-05-26 04:30:07,18.8,7.5,11.3,7.6,2.2,111
2019-05-26 04:35:07,18.7,7.8,11.0,11.0,2.1,112
2019-05-26 04:40:07,18.7,8.0,10.8,15.2,2.1,111
2019-05-26 04:45:07,18.7,8.1,10.7,19.5,2.1,112
2019-05-26 04:50:07,18.8,8.4,10.3,23.2,2.1,111
2019-05-26 04:55:07,18.8,8.5,10.3,26.0,2.2,112
2019-05-26 05:00:07,18.5,8.6,9.9,27.5,2.2,111
2019-05-26 05:05:07,18.9,8.3,10.6,28.7,2.2,111
2019-05-26 05:10:07,18.9,8.3,10.6,29.7,2.2,112
2019-05-26 05:15:07,19.0,8.2,10.8,30.3,2.2,112
2019-05-26 05:20:07,19.0,8.1,10.9,30.7,2.2,111
2019-05-26 05:25:07,19.0,8.3,10.7,30.9,2.3,111
2019-05-26 05:30:07,19.0,8.2,10.8,31.1,2.3,112
2019-05-26 05:35:07,19.1,8.3,10.7,31.3,2.3,111
2019-05-26 05:40:07,19.1,8.6,10.5,31.5,2.3,111
2019-05-26 05:45:07,19.2,8.2,11.0,31.6,2.3,112
2019-05-26 05:50:07,19.2,8.2,11.0,31.7,2.4,111
2019-05-26 05:55:07,19.2,8.7,10.5,31.8,2.4,112
2019-05-26 06:00:07,19.2,8.3,11.0,31.8,2.4,111
2019-05-26 06:05:02,19.2,7.5,11.7,32.0,2.4,49
2019-05-26 06:10:02,19.2,5.6,13.6,32.1,2.4,111
2019-05-26 06:15:02,19.2,5.3,13.9,32.2,2.4,112
2019-05-26 06:20:02,19.3,1.4,17.9,32.2,2.5,112
2019-05-26 06:25:02,20.3,5.6,14.6,32.1,2.6,111
2019-05-26 06:30:02,19.5,8.3,11.2,32.0,2.6,111
2019-05-26 06:35:02,19.3,8.7,10.6,32.1,2.7,112
2019-05-26 06:40:02,19.3,8.7,10.7,32.2,2.6,112
2019-05-26 06:45:02,19.4,8.9,10.5,32.3,2.6,111
2019-05-26 06:50:02,19.5,9.1,10.4,32.2,2.7,111
2019-05-26 06:55:02,19.8,8.9,10.9,32.2,2.6,111
2019-05-26 07:00:02,19.6,8.5,11.0,32.1,2.6,112
2019-05-26 07:05:02,19.6,9.0,10.5,32.3,2.6,111
2019-05-26 07:10:02,19.7,9.0,10.7,32.3,2.6,111
2019-05-26 07:15:02,19.8,8.9,10.9,32.3,2.4,111
2019-05-26 07:20:02,19.8,9.1,10.7,32.3,2.4,112
2019-05-26 07:25:02,20.0,8.8,11.2,32.4,2.3,111
2019-05-26 07:30:02,20.3,9.6,10.6,32.4,2.3,111
2019-05-26 07:35:02,20.6,9.2,11.4,32.5,2.3,112
2019-05-26 07:40:02,20.7,7.6,13.1,32.4,2.3,112
2019-05-26 07:45:02,20.8,7.2,13.6,32.5,2.3,111
2019-05-26 07:50:02,20.9,5.7,15.2,32.5,2.3,112
2019-05-26 07:55:02,21.1,7.9,13.2,32.5,2.3,111
2019-05-26 08:00:02,21.2,5.5,15.7,32.5,2.3,112
2019-05-26 08:05:02,21.2,3.8,17.4,32.5,2.3,111
2019-05-26 08:10:02,21.4,2.4,19.0,32.5,2.4,111
2019-05-26 08:15:02,23.9,0.1,23.8,32.5,2.3,112
2019-05-26 08:20:02,25.6,1.8,23.7,32.5,2.3,111
2019-05-26 08:25:02,26.1,3.8,22.2,32.4,2.3,111
2019-05-26 08:30:02,26.3,5.3,21.0,32.5,2.3,112
2019-05-26 08:35:02,25.8,6.1,19.7,32.5,2.3,111
2019-05-26 08:40:02,24.5,5.1,19.4,32.5,2.3,111
2019-05-26 08:45:02,25.1,3.4,21.8,32.5,2.3,112
2019-05-26 08:50:02,26.5,2.6,23.9,32.5,2.2,111
2019-05-26 08:55:02,27.1,-0.5,27.5,32.5,2.3,112
2019-05-26 09:00:02,26.8,-1.8,28.5,32.4,2.3,111
2019-05-26 09:05:02,26.9,-0.1,27.0,32.5,2.3,112
2019-05-26 09:10:02,27.1,0.6,26.5,32.4,2.3,111
2019-05-26 09:15:02,27.0,3.3,23.7,32.5,2.3,112
2019-05-26 09:20:02,27.1,5.9,21.1,32.5,2.4,111
2019-05-26 09:25:02,27.3,7.4,19.9,32.5,2.3,112
2019-05-26 09:30:02,25.4,10.5,14.9,32.5,2.4,111
2019-05-26 09:35:02,24.9,11.0,13.9,32.5,2.3,112
2019-05-26 09:40:02,24.5,11.2,13.2,32.5,2.3,111
2019-05-26 09:45:02,23.8,10.6,13.2,32.4,2.2,112
2019-05-26 09:50:02,23.1,10.8,12.3,32.4,2.3,111
2019-05-26 09:55:02,22.8,11.4,11.3,32.5,2.3,112
2019-05-26 10:00:02,22.8,12.3,10.5,32.5,2.3,111
2019-05-26 10:05:02,23.2,12.5,10.7,32.5,2.3,112
2019-05-26 10:10:02,23.5,12.0,11.5,32.5,2.3,111
2019-05-26 10:15:02,23.6,11.4,12.2,32.5,2.3,111
2019-05-26 10:20:02,23.3,11.2,12.0,32.5,2.3,112
2019-05-26 10:25:02,23.0,11.6,11.4,32.5,2.3,111
2019-05-26 10:30:02,23.0,11.9,11.1,32.5,2.3,111
2019-05-26 10:35:02,23.0,11.3,11.7,32.5,2.3,112
2019-05-26 10:40:02,22.8,11.6,11.2,32.5,2.3,111
2019-05-26 10:45:02,22.8,12.3,10.6,32.5,2.3,112
2019-05-26 10:50:02,23.1,12.4,10.7,32.5,2.3,111
2019-05-26 10:55:02,23.4,12.2,11.2,32.5,2.3,111
2019-05-26 11:00:02,23.8,12.8,11.1,32.6,2.3,112
2019-05-26 11:05:02,24.4,12.6,11.8,32.6,2.2,111
2019-05-26 11:10:02,24.7,8.5,16.2,32.5,2.3,112
2019-05-26 11:15:02,24.7,9.6,15.1,32.6,2.3,111
2019-05-26 11:20:02,24.7,12.1,12.6,32.6,2.3,111
2019-05-26 11:25:02,25.2,14.1,11.2,32.6,2.4,112
2019-05-26 11:30:02,25.7,12.1,13.6,32.6,2.3,111
2019-05-26 11:35:02,26.0,12.3,13.7,32.6,2.3,111
2019-05-26 11:40:02,26.6,14.8,11.8,32.6,2.3,111
2019-05-26 11:45:02,27.2,13.8,13.3,32.6,2.3,112
2019-05-26 11:50:02,26.8,13.3,13.5,32.5,2.3,111
2019-05-26 11:55:02,26.3,13.7,12.6,32.6,2.3,112
2019-05-26 12:00:02,26.1,14.0,12.2,32.6,2.3,111
2019-05-26 12:05:02,26.3,12.2,14.1,32.6,2.3,111
2019-05-26 12:10:02,26.6,12.7,13.8,32.6,2.3,112
2019-05-26 12:15:02,27.0,15.2,11.7,32.6,2.3,111
2019-05-26 12:20:02,27.3,13.5,13.8,32.6,2.3,111
2019-05-26 12:25:02,26.9,13.2,13.7,32.6,2.3,112
2019-05-26 12:30:02,26.6,13.1,13.5,32.6,2.3,111
2019-05-26 12:35:02,26.2,12.6,13.6,32.6,2.3,111
2019-05-26 12:40:02,25.8,12.9,12.9,32.6,2.3,111
2019-05-26 12:45:02,25.6,12.7,12.9,32.6,2.3,112
2019-05-26 12:50:02,25.4,13.0,12.4,32.6,2.3,111
2019-05-26 12:55:02,25.3,12.2,13.2,32.6,2.3,111
2019-05-26 13:00:02,25.3,11.8,13.5,32.6,2.3,112
2019-05-26 13:05:02,25.3,10.8,14.5,32.6,2.3,111
2019-05-26 13:10:02,25.3,13.1,12.2,32.6,2.3,112
2019-05-26 13:15:02,25.7,14.6,11.1,32.6,2.3,111
2019-05-26 13:20:02,26.1,12.6,13.4,32.6,2.3,111
2019-05-26 13:25:02,25.8,12.9,12.9,32.5,2.3,111
2019-05-26 13:30:02,25.4,14.0,11.4,32.6,2.3,111
2019-05-26 13:35:02,25.5,14.3,11.2,32.6,2.3,112
2019-05-26 13:40:02,25.6,13.9,11.7,32.6,2.5,111
2019-05-26 13:45:02,25.6,13.9,11.8,32.6,3.0,111
2019-05-26 13:50:02,25.7,14.0,11.7,32.6,2.8,112
2019-05-26 13:55:02,25.8,14.9,10.8,32.6,2.9,111
2019-05-26 14:00:02,26.1,15.2,11.0,32.6,2.5,112
2019-05-26 14:05:02,26.5,14.8,11.6,32.6,2.3,111
2019-05-26 14:10:02,26.6,14.7,11.9,32.6,2.3,111
2019-05-26 14:15:02,26.4,13.5,12.9,32.5,2.3,111
2019-05-26 14:20:02,25.9,14.5,11.4,32.6,2.3,112
2019-05-26 14:25:02,25.9,14.2,11.6,32.6,2.3,111
2019-05-26 14:30:02,26.2,13.4,12.7,32.6,2.3,111
2019-05-26 14:35:02,26.5,12.8,13.7,32.5,2.3,112
2019-05-26 14:40:02,26.1,13.3,12.8,32.5,2.3,112
2019-05-26 14:45:02,25.9,13.7,12.2,32.6,2.3,111
2019-05-26 14:50:02,26.0,14.0,12.0,32.6,2.3,112
2019-05-26 14:55:02,26.3,13.0,13.3,32.6,2.3,111
2019-05-26 15:00:02,26.3,13.5,12.9,32.6,2.3,111
2019-05-26 15:05:02,26.3,13.8,12.5,32.6,2.3,111
2019-05-26 15:10:02,26.1,12.9,13.2,32.5,2.3,112
2019-05-26 15:15:03,25.6,13.7,11.9,32.5,2.3,111
2019-05-26 15:20:03,25.4,12.9,12.5,32.5,2.3,112
2019-05-26 15:25:03,25.0,12.4,12.6,32.4,2.4,111
2019-05-26 15:30:03,24.4,11.9,12.5,32.3,2.5,111
2019-05-26 15:35:03,23.9,12.2,11.7,32.4,2.3,112
2019-05-26 15:40:03,23.6,12.4,11.3,32.4,2.2,111
2019-05-26 15:45:03,23.5,12.3,11.2,32.4,2.3,112
2019-05-26 15:50:03,23.4,12.5,11.0,32.4,2.4,111
2019-05-26 15:55:03,23.5,12.3,11.1,32.5,2.4,111
2019-05-26 16:00:03,23.4,12.0,11.4,32.4,2.3,112
2019-05-26 16:05:03,23.2,12.1,11.2,32.4,2.3,111
2019-05-26 16:10:03,23.2,12.4,10.8,32.5,2.3,111
2019-05-26 16:15:03,23.7,12.0,11.7,32.5,2.3,112
2019-05-26 16:20:03,24.1,11.8,12.2,32.5,2.3,111
2019-05-26 16:25:03,24.3,12.5,11.8,32.5,2.3,111
2019-05-26 16:30:03,24.3,12.5,11.7,32.5,2.3,112
2019-05-26 16:35:03,24.3,11.6,12.7,32.5,2.3,111
2019-05-26 16:40:03,24.4,11.1,13.3,32.5,2.3,112
2019-05-26 16:45:03,24.3,11.1,13.2,32.5,2.3,111
2019-05-26 16:50:03,24.1,12.1,11.9,32.5,2.3,112
2019-05-26 16:55:03,23.9,12.0,11.9,32.4,2.2,111
2019-05-26 17:00:03,23.6,12.0,11.6,32.4,2.3,112
2019-05-26 17:05:03,23.6,12.2,11.4,32.5,2.3,111
2019-05-26 17:10:03,23.9,12.3,11.6,32.5,2.2,111
2019-05-26 17:15:03,23.8,12.1,11.7,32.4,2.2,111
2019-05-26 17:20:03,23.6,11.9,11.7,32.3,2.3,112
2019-05-26 17:25:03,23.3,11.7,11.6,32.3,2.3,111
2019-05-26 17:30:03,23.0,11.6,11.3,32.3,2.3,111
2019-05-26 17:35:03,22.8,11.7,11.1,32.4,2.3,111
2019-05-26 17:40:03,22.6,11.4,11.2,32.3,2.3,112
2019-05-26 17:45:03,22.4,11.6,10.8,32.4,2.3,111
2019-05-26 17:50:03,22.4,11.3,11.1,32.3,2.4,112
2019-05-26 17:55:03,22.3,11.2,11.0,32.2,2.4,111
2019-05-26 18:00:03,22.1,11.2,10.9,32.1,2.3,111
2019-05-26 18:05:03,21.9,10.6,11.2,32.0,3.7,112
2019-05-26 18:10:03,21.5,10.2,11.3,32.0,3.7,111
2019-05-26 18:15:03,21.2,10.1,11.0,32.0,3.2,112
2019-05-26 18:20:03,21.0,9.5,11.4,31.9,5.7,111
2019-05-26 18:25:03,20.8,9.5,11.3,32.0,7.9,112
2019-05-26 18:30:03,20.8,9.5,11.2,32.1,4.3,111
2019-05-26 18:35:03,20.6,10.4,10.2,32.1,2.9,112
2019-05-26 18:40:03,20.6,10.8,9.8,32.1,2.5,111
2019-05-26 18:45:03,20.6,10.5,10.1,32.1,2.7,112
2019-05-26 18:50:03,20.7,11.1,9.6,32.2,2.4,111
2019-05-26 18:55:03,20.8,10.9,9.9,32.2,3.0,112
2019-05-26 19:00:03,20.9,11.2,9.7,32.2,2.5,111
2019-05-26 19:05:03,21.0,10.8,10.2,32.1,3.2,111
2019-05-26 19:10:03,20.9,11.2,9.8,32.0,2.5,111
2019-05-26 19:15:03,21.0,11.2,9.7,32.2,2.5,112
2019-05-26 19:20:03,21.2,12.2,9.0,32.5,2.5,111
2019-05-26 19:25:03,21.9,10.4,11.5,32.5,2.4,112
2019-05-26 19:30:03,22.5,7.9,14.6,32.5,2.3,112
2019-05-26 19:35:03,23.5,2.5,21.0,32.5,2.3,111
2019-05-26 19:40:03,26.1,-0.8,26.9,32.5,2.3,112
2019-05-26 19:45:03,26.9,-1.2,28.2,32.5,2.3,112
2019-05-26 19:50:03,27.2,-1.8,29.0,32.5,2.3,111
2019-05-26 19:55:03,27.1,-2.4,29.5,32.3,2.3,112
2019-05-26 20:00:03,26.8,0.1,26.7,32.3,2.3,111
2019-05-26 20:05:03,25.7,7.1,18.6,32.2,2.3,112
2019-05-26 20:10:03,23.1,6.8,16.3,32.2,2.3,111
2019-05-26 20:15:03,22.4,3.8,18.6,32.4,2.3,112
2019-05-26 20:20:03,24.8,-0.9,25.6,32.4,2.3,112
2019-05-26 20:25:03,26.1,-2.1,28.2,32.2,2.3,111
2019-05-26 20:30:03,26.3,-1.6,28.0,32.3,2.3,112
2019-05-26 20:35:03,26.5,-1.8,28.3,32.3,2.2,112
2019-05-26 20:40:03,26.6,-2.5,29.1,32.1,2.3,112
2019-05-26 20:45:03,26.6,-2.7,29.2,32.0,2.3,111
2019-05-26 20:50:03,26.4,-2.8,29.2,31.8,2.2,112
2019-05-26 20:55:03,26.1,-3.7,29.9,31.5,2.3,112
2019-05-26 21:00:03,25.8,-4.4,30.2,31.1,2.3,112
2019-05-26 21:05:03,25.6,-4.4,29.9,30.7,2.3,112
2019-05-26 21:10:03,25.4,-3.9,29.3,30.1,2.3,112
2019-05-26 21:15:03,25.4,-2.5,27.9,29.0,2.3,111
2019-05-26 21:20:03,25.4,-1.2,26.6,27.5,2.3,111
2019-05-26 21:25:03,25.3,-1.4,26.7,23.5,2.3,112
2019-05-26 21:30:03,25.1,-2.3,27.4,18.2,2.3,111
2019-05-26 21:35:03,25.0,-1.8,26.8,13.1,2.3,112
2019-05-26 21:40:03,25.1,2.1,23.0,8.9,2.3,111
2019-05-26 21:45:03,25.2,1.0,24.1,6.0,2.3,111
2019-05-26 21:50:03,25.2,1.5,23.7,3.8,2.3,111
2019-05-26 21:55:03,24.7,-1.5,26.1,2.4,2.3,112
2019-05-26 22:00:03,25.1,1.2,23.9,1.4,2.3,111
2019-05-26 22:05:03,24.3,4.3,20.0,0.8,2.3,112
2019-05-26 22:10:03,23.7,-1.9,25.6,0.5,2.3,111
2019-05-26 22:15:03,24.6,-3.2,27.8,0.3,2.3,112
2019-05-26 22:20:03,24.8,1.4,23.4,0.1,2.3,111
2019-05-26 22:25:03,24.8,-1.7,26.6,0.0,2.3,112
2019-05-26 22:30:03,24.2,4.5,19.6,0.0,2.3,112
2019-05-26 22:35:03,21.2,2.5,18.8,0.0,2.3,111
2019-05-26 22:40:03,23.1,-1.4,24.4,0.0,2.3,112
2019-05-26 22:45:03,24.3,-0.6,24.9,0.0,2.3,112
2019-05-26 22:50:03,24.5,-4.5,29.1,0.0,2.3,111
2019-05-26 22:55:03,24.5,-6.5,31.0,0.0,2.3,112
2019-05-26 23:00:03,24.4,-6.8,31.2,0.0,2.3,112
2019-05-26 23:05:03,24.3,-7.1,31.4,0.0,2.3,111
2019-05-26 23:10:03,24.2,-7.3,31.5,0.0,2.3,112
2019-05-26 23:15:03,24.1,-7.5,31.6,0.0,2.3,111
2019-05-26 23:20:03,24.0,-7.7,31.7,0.0,2.4,112
2019-05-26 23:25:03,23.8,-7.9,31.7,0.0,2.4,111
2019-05-26 23:30:03,23.7,-8.1,31.8,0.0,2.3,111
2019-05-26 23:35:03,23.5,-8.6,32.1,0.0,2.3,112
2019-05-26 23:40:03,23.0,-9.0,31.9,0.0,2.3,112
2019-05-26 23:45:03,23.3,-9.1,32.4,0.0,2.3,112
2019-05-26 23:50:03,23.2,-9.1,32.4,0.0,2.3,112
2019-05-26 23:55:03,23.1,-9.7,32.7,0.0,2.3,112
